User: anonymous   Login
Location: Nitra
(48.3167°N, 18.0833°E)
Time: 21:03:06
(UTC+01:00)
Language:

STARLINK-1750 - Orbit

View from above orbital plane
View from above orbital plane
View from above satellite
View from above satellite

Ground track
Ground track

The orbit data is extracted from the following two-line orbital elements,

1 46337C 20062P   20332.45587843 -.01141936  00000-0 -35796-1 0  3326
2 46337  53.0014  13.9190 0001358  62.3258  27.8515 15.33659293    19
Epoch (UTC): 27 November 2020 10:56:27
Eccentricity: 0.0001358
inclination: 53.0014°
perigee height: 464 km
apogee height: 466 km
right ascension of ascending node: 13.9190°
argument of perigee: 62.3258°
revolutions per day: 15.33659293
mean anomaly at epoch: 27.8515°
orbit number at epoch: 1

The dashed part of the orbit path shows where the satellite is in the earth's shadow,  

DLR